Location: Unspecified
(48.5539°N, 71.6350°W)
Time: 18:43:50
(UTC-04:00)

ISS - Pass Details

Date: 27 May 2019
Orbit: 408 x 418 km, 51.6° (Epoch: 19 June)

Event Time Altitude Azimuth Distance (km) Brightness Sun altitude
Rises 21:56:02 0° 286° (WNW) 2,356 1.1 -10.7°
Reaches altitude 10° 21:58:09 10° 291° (WNW) 1,495 0.1 -10.9°
Maximum altitude 22:01:27 55° 11° (N) 510 -3.1 -11.2°
Drops below altitude 10° 22:04:46 10° 90° (E) 1,498 -1.3 -11.6°
Enters shadow 22:05:06 - 91° (E) 1,635 -1.1 -11.6°
